Preview of NWS' New Version of Forecast
This preview is not operational and should not be used for support decisions.
Latest weather observations around

Ironwood, Gogebic-Iron County Airport (KIWD)

Using English Units (Switch to International System of Units)
Date/ Time (CDT) Wind (mph) Vis. (mi) Weather Sky Cond. Temp (°F) Rel. Humidity Wind Chill (°F) Heat Index (°F) Pressure Precip. (in)
Air Dwpt 6 hour Altimeter (inHg) Sea level (inHg) 1 hr 3 hr 6 hr
Max Min
Notice The following observation data may not be complete
Sep 16 22:56 S 14 10 Clear CLR   60      %     30.05 30.03      
Sep 16 21:56 S 11 10 Clear CLR 72 61     68%   72 30.04 30.03      
Sep 16 20:56 SSE 8 10 Clear CLR 73 61     66%   73 30.04 30.03      
Sep 16 19:56 E 6 10 Clear CLR 72 63     73%   72 30.04 30.03      
Sep 16 18:56 SSE 5 10 Clear CLR 77 61     58%   77 30.04 30.03      
Sep 16 17:56 SSE 3 10 Clear CLR 79 61     54%   79 30.05 30.04      
Sep 16 16:56 S 5 10 Clear CLR 81 62     53%   82 30.06 30.05      
Sep 16 15:56 S 8 10 Clear CLR 81 61     51%   82 30.06 30.05      
Sep 16 14:56 SSW 7 10 Clear CLR 82 63     53%   83 30.07 30.06      
Sep 16 13:56 SSW 11 10 Clear CLR 81 63     54%   82 30.08 30.07      
Sep 16 12:56 SW 6 10 Clear CLR 80 64     58%   82 30.1 30.09      
Sep 16 11:56 SSW 8 10 Clear CLR 78 65     64%   79 30.1 30.09      
Sep 16 10:56 S 6 10 Clear CLR 74 63     69%   74 30.11 30.1      
Sep 16 09:56 SW 6 10 Clear CLR 72 63     73%   72 30.11 30.11      
Sep 16 08:56 3 10 Clear CLR 66 61     84%     30.12 30.11      
Sep 16 07:56 Calm 10 Clear CLR 60 58     93%     30.11 30.11      
Sep 16 06:56 Calm 10 Clear CLR 55 54     96%     30.1 30.1      
Sep 16 06:44 Calm 4 Fog/Mist CLR 54 54     100%     30.1        
Sep 16 06:30 Calm 1.25 Fog/Mist CLR 54 52     94%     30.1        
Sep 16 06:15 Calm 0.75 Fog/Mist CLR 54 52     94%     30.1        
Sep 16 06:03 Calm 1.75 Fog/Mist CLR 54 54     100%     30.09        
Sep 16 05:56 Calm 4 Fog/Mist FEW037 54 53     97%     30.09 30.09      
Sep 16 04:56 Calm 6 Fog/Mist BKN033 BKN043 53 53     100%     30.09 30.09      
Sep 16 03:56 Calm 6 Fog/Mist BKN035 52 52     100%     30.08 30.07      
Sep 16 03:49 Calm 3 Fog/Mist BKN035 54 52     94%     30.08        
Sep 16 03:40 Calm 1.75 Fog/Mist FEW035 52 52     100%     30.07        
Sep 16 02:56 Calm 10 Mostly Cloudy FEW002 BKN036 53 53     100%     30.07 30.06      
Sep 16 01:56 Calm 3 Fog/Mist SCT042 50 50     100%     30.06 30.06      
Sep 16 01:52 Calm 6 Fog/Mist FEW002 SCT042 52 50     94%     30.06        
Sep 16 01:42 Calm 9 Partly Cloudy SCT042 52 52     100%     30.06        
Sep 16 01:35 Calm 2 Fog/Mist CLR 52 52     100%     30.06        
Sep 16 01:32 Calm 1 Fog/Mist CLR 52 52     100%     30.05        
Sep 16 01:22 Calm 0.75 Fog/Mist VV002 52 52     100%     30.05        
Sep 16 01:07 Calm 0.5 Fog VV002 52 52     100%     30.05        
Sep 16 00:56 Calm 1 Fog/Mist BKN002 51 50     96%     30.05 30.05      
Sep 16 00:37 Calm 0.25 Fog OVC002 52 52     100%     30.05        
Sep 16 00:16 Calm 0.5 Fog OVC002 52 52     100%     30.05        
Sep 16 00:09 Calm 0.75 Fog/Mist OVC002 52 52     100%     30.05        
Sep 15 23:56 Calm 1.75 Fog/Mist OVC002 51 51     100%     30.05 30.05      
Sep 15 23:36 Calm 5 Fog/Mist OVC002 52 52     100%     30.05        
Sep 15 23:31 Calm 1.25 Fog/Mist OVC002 52 52     100%     30.05        
Sep 15 23:17 Calm 2.5 Fog/Mist OVC002 54 54     100%     30.05        
Sep 15 23:09 Calm 1 Fog/Mist OVC002 52 52     100%     30.05        
Sep 15 23:02 Calm 2 Fog/Mist OVC002 54 52     94%     30.05        
Sep 15 22:59 Calm 1 Fog/Mist OVC002 54 54     100%     30.05        
Sep 15 22:56 Calm 0.5 Fog OVC002 53 53     100%     30.05 30.05      
Sep 15 22:32 Calm 0.25 Fog OVC002 54 54     100%     30.05        
Sep 15 21:56 Calm 0.5 Fog VV002 55 55     100%     30.04 30.04      
Sep 15 21:51 Calm 0.5 Fog VV003 55 55     100%     30.04        
Sep 15 21:40 Calm 0.5 Fog FEW002 SCT075 55 55     100%     30.04        
Sep 15 21:37 Calm 1.25 Fog/Mist FEW002 SCT075 55 55     100%     30.04        
Sep 15 21:32 Calm 6 Fog/Mist FEW002 BKN075 55 55     100%     30.04        
Sep 15 21:21 Calm 2 Fog/Mist SCT002 OVC075 55 55     100%     30.04        
Sep 15 21:12 Calm 1.25 Fog/Mist SCT002 OVC075 55 55     100%     30.04        
Sep 15 21:09 Calm 0.75 Fog/Mist BKN002 OVC075 57 57     100%     30.04        
Sep 15 20:56 Calm 0.25 Fog OVC002 56 56     100%     30.03 30.04      
Sep 15 20:54 Calm 0.25 Fog OVC002 57 57     100%     30.03        
Sep 15 20:50 Calm 0.75 Fog/Mist OVC002 57 57     100%     30.03        
Sep 15 20:46 Calm 1.25 Fog/Mist OVC002 57 57     100%     30.03        
Sep 15 20:43 Calm 0.75 Fog/Mist OVC002 57 57     100%     30.03        
Sep 15 20:33 Calm 0.25 Fog OVC002 59 57     94%     30.03        
Sep 15 20:14 Calm 0.5 Fog BKN002 59 59     100%     30.02        
Sep 15 20:07 Calm 1 Fog/Mist VV002 59 59     100%     30.02        
Sep 15 20:02 Calm 2 Fog/Mist FEW002 59 59     100%     30.02        
Sep 15 19:58 Calm 1 Fog/Mist VV002 61 59     94%     30.02        
Sep 15 19:56 Calm 0.5 Fog VV002 60 59     96%     30.02 30.02      
Sep 15 19:47 Calm 0.5 Fog VV002 61 61     100%     30.02        
Sep 15 19:44 Calm 0.75 Fog/Mist CLR 61 61     100%     30.01        
Sep 15 19:40 Calm 1.75 Fog/Mist CLR 61 61     100%     30.01        
Sep 15 18:56 Calm 7 Clear CLR 67 63     87%     30.01 30.01      
Sep 15 17:56 3 10 Partly Cloudy SCT014 69 63     81%     30 30      
Sep 15 16:56 NNW 6 4 Haze CLR 69 63     81%     30 29.99      
Sep 15 16:17 NNW 9 10 Partly Cloudy FEW022 SCT028 72 63     73%   72 30        
Sep 15 15:56 W 7 10 Mostly Cloudy BKN024 BKN031 73 64     73%   73 29.99 29.98      
Sep 15 14:56 W 6 10 Mostly Cloudy BKN020 BKN029 71 63     76%   71 30 29.99      
Sep 15 13:56 3 10 Cloudy BKN018 BKN024 OVC029 68 62     81%     30.02 30.01      
Sep 15 12:56 WSW 3 10 Cloudy OVC018 67 61     81%     30.02 30.02      
Sep 15 11:56 S 7 10 Cloudy OVC018 67 61     81%     30.02 30.01      
Sep 15 11:14 SSW 6 10 Cloudy SCT014 BKN018 OVC025 66 61     83%     30.02        
Sep 15 10:56 SSE 7 10 Cloudy BKN012 OVC020 64 60     87%     30.02 30.01      
Sep 15 09:56 S 6 10 Cloudy OVC024 63 58     84%     30.01 30.01      
Sep 15 08:56 SSE 6 10 Mostly Cloudy BKN026 BKN044 60 57     90%     30.01 30.01      
Sep 15 08:23 Calm 10 Cloudy BKN026 OVC040 59 55     88%     30.01        
Sep 15 07:56 5 10 Mostly Cloudy SCT045 BKN055 59 56     90%     30 30.01      
Sep 15 06:56 Calm 10 Mostly Cloudy BKN050 56 55     97%     30 30      
Sep 15 05:56 ESE 5 9 Clear CLR 58 55     90%     29.99 30      
Sep 15 04:56 E 6 10 Mostly Cloudy BKN120 57 55     93%     30 29.99      
Sep 15 03:56 ESE 7 10 Mostly Cloudy FEW036 BKN120 58 55     90%     30 29.99      
Sep 15 02:56 ESE 7 10 Cloudy BKN038 OVC110 58 55     90%     30 30      
Sep 15 01:56 ESE 7 10 Mostly Cloudy SCT042 BKN050 BKN120 58 55     90%     30.02 30.01      
Sep 15 00:56 E 7 10 Mostly Cloudy BKN040 BKN049 57 55     93%     30.02 30.02     0
Sep 14 23:56 Calm 10 Cloudy BKN070 OVC120 58 55     90%     30.04 30.04      
Sep 14 22:56 Calm 10 Cloudy BKN055 OVC065 58 55     90%     30.05 30.06      
Sep 14 21:56 ESE 5 10 Mostly Cloudy BKN070 58 55     90%     30.05 30.06   0  
Sep 14 20:56 SSE 3 7 Partly Cloudy SCT070 57 55     93%     30.05 30.06 0    
Sep 14 19:56 Calm 10 Light Rain BKN100 57 55     93%     30.05 30.06 0    
Sep 14 18:56 NE 3 10 Mostly Cloudy SCT095 BKN120 60 53     78%     30.04 30.06      
Sep 14 17:56 NNE 5 10 Cloudy BKN100 OVC110 62 52     70%     30.05 30.06      
Sep 14 16:56 SW 5 10 Mostly Cloudy BKN085 68 49     50%     30.05 30.05      
Sep 14 15:56 SW 5 10 Partly Cloudy SCT085 67 49     52%     30.05 30.05      
Sep 14 14:56 SW 7 10 Mostly Clear FEW100 67 49     52%     30.06 30.06      
Sep 14 13:56 SW 8 10 Mostly Clear FEW043 65 48     54%     30.08 30.08      
Sep 14 12:56 W 10 10 Clear CLR 64 47     54%     30.11 30.11      
Sep 14 11:56 WNW 11 10 Clear CLR 62 44     52%     30.11 30.11      
Sep 14 10:56 W 9 10 Clear CLR 60 46     60%     30.1 30.11      
Sep 14 09:56 WSW 9 10 Clear CLR 56 46     69%     30.1 30.11      
Sep 14 08:56 SW 10 10 Clear CLR 54 47     77%     30.1 30.11      
Sep 14 07:56 WSW 11 10 Clear CLR 50 47     89%     30.08 30.1      
Sep 14 06:56 WSW 7 10 Clear CLR 46 45     96% 42   30.06 30.08      
Sep 14 05:56 W 7 10 Clear CLR 47 46     97% 44   30.04 30.06      
Sep 14 04:56 W 10 10 Clear CLR 49 46     90% 45   30.03 30.04      
Sep 14 03:56 W 15 10 Clear CLR 50 47     89%     30 30.01      
Sep 14 02:56 W 16 10 Clear CLR 51 48     89%     29.98 29.99      
Sep 14 01:56 W 17 10 Cloudy OVC050 53 48     83%     29.96 29.97      
Sep 14 00:56 W 17 10 Cloudy FEW019 OVC048 53 49     86%     29.95 29.96 0   0
Sep 13 23:56 W 13 10 Cloudy FEW029 OVC055 52 47     83%     29.95 29.96      
May 15 05:56 NNE 5 10 Clear CLR 42 36     79% 39     30.06      
May 14 16:56 NE 3 10 Clear CLR 73 50     44%   72 29.82 29.81      
May 14 10:56 SSW 8 10 Clear CLR 74 47     38%   73   29.87      
May 14 07:56 WSW 8 10 Clear CLR 63 50     63%     29.9 29.89      
May 14 06:56 W 5 10 Clear CLR 57 50     77%       29.88      
May 14 01:56 SW 6 10 Clear CLR 55 44     66%     29.88 29.87      
May 13 11:56 W 10 10 Mostly Clear FEW120 66 33     29%       30.01      
May 13 04:56 W 5 10 Clear CLR 42 33     70% 39     30.08      
May 13 00:56 Calm 10 Clear CLR 38 30     73%     30.06 30.08      
May 12 22:56 Calm 10 Clear CLR 41 32     70%     30.09 30.11      
May 12 20:56 E 6 10 Clear CLR 52 25     35%     30.1 30.11      
May 12 18:56 Calm 10 Clear CLR 55 24     30%       30.14      
May 12 17:56 NNE 5 10 Clear CLR 56        %       30.15      
May 12 13:56 NE 11 10 Clear CLR 59 23     25%       30.16      
May 12 10:56 Calm 10 Clear CLR 58 28     32%       30.19      
May 12 05:56 Calm 10 Clear CLR 27 26     96%     30.15 30.19      
May 12 03:56 Calm 10 Clear CLR 26 24     92%       30.15      
May 11 23:56 Calm 10 Clear CLR 31 29     92%     30.12 30.15      
May 11 14:56 N 13 10 Clear CLR 51 21     30%     30.1 30.13      
May 11 06:56 ESE 5 10 Clear CLR 37 20     50% 33     30.19      
Jun 12 05:56 WSW 5 1 Fog/Mist CLR 58 58     100%     29.85 29.85      
Notice The following observation data may not be complete
Jun 11 20:18   10 Light Rain FEW008          %         0    
Notice The following observation data may not be complete
Jun 11 18:23   10 Light Rain BKN110          %         0    
Jun 11 09:56 SE 7 10 Partly Cloudy SCT110 73 57     57%   73 29.84 29.82      
Notice The following observation data may not be complete
Jun 10 00:56 SSE 11 10 Cloudy OVC100   55      %     29.7 29.68      
Jun 09 14:56 N 9 10 Partly Cloudy SCT060 74 50     43%   73 29.82 29.82      
Notice The following observation data may not be complete
Jun 09 11:56 ENE 5 10 Clear CLR   46      %       29.87      
Jun 09 04:33 Calm 1 Fog/Mist BKN002 46 46     100%     29.87        
Jun 09 03:07 WSW 5 2.5 Fog/Mist BKN002 48 48     100% 46   29.87        
Jun 09 02:38 Calm 2.5 Fog/Mist CLR 48 48     100%     29.87        
Jun 08 22:56 SW 3 10 Clear CLR 53 52     96%     29.88 29.87      
Jun 08 19:56 Calm 10 Partly Cloudy SCT100 65 54     68%     29.85 29.85      
Jun 07 10:56 6 10 Clear CLR 74 48     40%   73 30.13 30.13      
Jun 06 07:56 E 5 9 Clear CLR 56 46     69%     30.19 30.19      
Jun 06 04:15 Calm 2 Fog/Mist CLR 39 39     100%     30.14        
Jun 06 02:56 Calm 10 Clear CLR 41 39     93%     30.14 30.15